Morgantown, WV

5:04 PM EST on December 06, 2016 (GMT -0500)
Morgantown Municipal-Hart

Weather History for KMGW - January, 2009

Change the Weather History Date:

Saturday, January 10, 2009

  Actual Average Record
Temperature  
Mean Temperature 38 °F 31 °F  
Max Temperature 46 °F 39 °F 58 °F (1950)
Min Temperature 30 °F 24 °F -8 °F (1982)
Degree Days  
Heating Degree Days 27 34  
Month to date heating degree days 298 337  
Since 1 July heating degree days 2279 2321  
Cooling Degree Days 0 0  
Month to date cooling degree days 0 0  
Year to date cooling degree days 0 0  
Moisture  
Dew Point 36 °F    
Average Humidity 79    
Maximum Humidity 100    
Minimum Humidity 58    
Precipitation  
Precipitation 0.32 in 0.09 in 1.52 in (1974)
Month to date precipitation 1.53 0.89  
Year to date precipitation 1.53 0.89  
Sea Level Pressure  
Sea Level Pressure 29.86 in    
Wind  
Wind Speed 2 mph (SSW)    
Max Wind Speed 10 mph    
Max Gust Speed 17 mph    
Visibility 5 miles    
Events Fog , Rain    
T = Trace of Precipitation, MM = Missing Value Source: NWS Daily Summary

Daily Weather History Graph

Daily Weather History Graph

Search for Another Location

Airport or City:

Trip Planner

Search our weather history database for the weather conditions in past years. The results will help you decide how hot, cold, wet, or windy it might be!

Date:

Astronomy

Jan. 10, 2009 Rise Set
Actual Time 7:40 AM EST 5:14 PM EST
Civil Twilight 7:10 AM EST 5:44 PM EST
Nautical Twilight 6:36 AM EST 6:18 PM EST
Astronomical Twilight 6:04 AM EST 6:50 PM EST
Moon 4:47 PM EST (1/10) 7:21 AM EST (1/10)
Length of Visible Light 10h 34m
Length of Day
9h 34m
Full, 100% of the Moon is Illuminated
Jan 10
Full
Jan 10
Full
Jan 17
Last Quarter
Jan 26
New
Feb 2
First Quarter

Hourly Weather History & Observations

Time (EST) Temp. Windchill Dew Point Humidity Pressure Visibility Wind Dir Wind Speed Gust Speed Precip Events Conditions
12:53 AM 30.0 °F - 19.9 °F 66% 30.14 in 10.0 mi Calm Calm - N/A   Overcast
1:53 AM 30.0 °F 26.5 °F 19.9 °F 66% 30.12 in 10.0 mi North 3.5 mph - N/A   Overcast
2:53 AM 30.9 °F 27.5 °F 21.0 °F 67% 30.13 in 10.0 mi North 3.5 mph - N/A   Overcast
3:53 AM 30.9 °F 27.5 °F 21.0 °F 67% 30.12 in 10.0 mi ENE 3.5 mph - N/A   Overcast
4:53 AM 30.0 °F - 21.9 °F 72% 30.11 in 10.0 mi Calm Calm - N/A   Overcast
5:53 AM 30.0 °F - 23.0 °F 75% 30.10 in 10.0 mi Calm Calm - N/A   Overcast
6:53 AM 30.9 °F 27.5 °F 24.1 °F 76% 30.07 in 10.0 mi NNW 3.5 mph - N/A   Overcast
7:53 AM 30.9 °F - 24.1 °F 76% 30.05 in 10.0 mi Calm Calm - N/A   Overcast
8:53 AM 32.0 °F - 25.0 °F 75% 30.03 in 10.0 mi Calm Calm - N/A   Mostly Cloudy
9:53 AM 35.1 °F - 26.1 °F 70% 30.00 in 10.0 mi Calm Calm - N/A   Mostly Cloudy
10:53 AM 35.1 °F - 27.0 °F 72% 29.99 in 10.0 mi Calm Calm - N/A   Overcast
11:53 AM 34.0 °F - 28.9 °F 82% 29.96 in 4.0 mi Calm Calm - 0.01 in Rain Light Rain
12:27 PM 33.8 °F - 30.2 °F 87% 29.89 in 3.0 mi Calm Calm - 0.04 in Rain Light Rain
12:53 PM 34.0 °F 31.0 °F 32.0 °F 92% 29.89 in 1.8 mi East 3.5 mph - 0.08 in Rain Rain
1:18 PM 35.6 °F 29.9 °F 33.8 °F 93% 29.83 in 2.5 mi ESE 6.9 mph - 0.04 in Rain Rain
1:38 PM 37.4 °F - 35.6 °F 93% 29.82 in 3.0 mi Calm Calm - 0.10 in Rain Rain
2:11 PM 37.4 °F - 37.4 °F 100% 29.80 in 3.0 mi Calm Calm - 0.02 in Rain Light Rain
2:42 PM 37.4 °F - 37.4 °F 100% 29.79 in 1.8 mi Calm Calm - 0.02 in   Overcast
2:53 PM 37.9 °F - 37.0 °F 97% 29.82 in 1.5 mi Calm Calm - 0.02 in   Overcast
3:12 PM 37.4 °F - 37.4 °F 100% 29.79 in 1.0 mi Calm Calm - N/A   Overcast
3:17 PM 37.4 °F - 35.6 °F 93% 29.78 in 0.2 mi Calm Calm - 0.00 in Fog Fog
3:33 PM 37.4 °F 34.9 °F 35.6 °F 93% 29.77 in 0.8 mi SSE 3.5 mph - 0.01 in   Overcast
3:45 PM 37.4 °F - 37.4 °F 100% 29.78 in 1.5 mi Calm Calm - 0.01 in   Overcast
3:53 PM 37.9 °F 35.5 °F 37.9 °F 100% 29.81 in 1.2 mi SSE 3.5 mph - 0.01 in   Overcast
4:27 PM 41.0 °F - 39.2 °F 93% 29.78 in 2.0 mi Calm Calm - 0.01 in   Overcast
4:37 PM 42.8 °F 41.1 °F 39.2 °F 87% 29.78 in 1.2 mi South 3.5 mph - 0.01 in Rain Light Rain
4:53 PM 42.1 °F 39.2 °F 41.0 °F 96% 29.80 in 1.2 mi South 4.6 mph - 0.02 in   Overcast
5:18 PM 42.8 °F 41.1 °F 42.8 °F 100% 29.77 in 0.8 mi South 3.5 mph - N/A   Overcast
5:28 PM 44.6 °F 42.2 °F 42.8 °F 93% 29.77 in 1.5 mi Variable 4.6 mph - N/A   Overcast
5:40 PM 44.6 °F 42.2 °F 44.6 °F 100% 29.77 in 2.5 mi SSW 4.6 mph - N/A   Overcast
5:53 PM 46.0 °F 43.1 °F 45.0 °F 96% 29.79 in 2.0 mi SSW 5.8 mph - N/A   Overcast
6:38 PM 42.8 °F 41.1 °F 42.8 °F 100% 29.77 in 1.2 mi WNW 3.5 mph - 0.01 in Rain Light Rain
6:53 PM 44.1 °F - 43.0 °F 96% 29.79 in 2.0 mi Calm Calm - 0.02 in Rain Light Rain
7:20 PM 44.6 °F 43.1 °F 44.6 °F 100% 29.76 in 2.5 mi SW 3.5 mph - 0.00 in   Overcast
7:46 PM 44.6 °F - 44.6 °F 100% 29.75 in 1.8 mi Calm Calm - 0.01 in   Overcast
7:53 PM 44.1 °F - 44.1 °F 100% 29.77 in 0.8 mi Calm Calm - 0.01 in   Overcast
8:08 PM 44.6 °F - 44.6 °F 100% 29.73 in 0.2 mi Calm Calm - N/A Fog Fog
8:24 PM 46.4 °F - 44.6 °F 93% 29.73 in 1.2 mi Calm Calm - 0.00 in Rain Light Rain
8:27 PM 46.4 °F - 44.6 °F 93% 29.73 in 3.0 mi Calm Calm - 0.00 in Rain Light Rain
8:53 PM 46.0 °F 43.9 °F 45.0 °F 96% 29.75 in 4.0 mi Variable 4.6 mph - 0.02 in Rain Light Rain
9:53 PM 45.0 °F 42.6 °F 44.1 °F 97% 29.76 in 10.0 mi WSW 4.6 mph - 0.01 in   Overcast
10:44 PM 44.6 °F 43.1 °F 42.8 °F 93% 29.75 in 10.0 mi SW 3.5 mph - 0.00 in   Overcast
10:53 PM 44.1 °F 40.8 °F 42.1 °F 93% 29.77 in 10.0 mi SW 5.8 mph - 0.00 in   Overcast
11:10 PM 42.8 °F 37.0 °F 41.0 °F 93% 29.76 in 10.0 mi WSW 10.4 mph 16.1 mph N/A   Overcast
11:53 PM 42.1 °F 37.7 °F 39.9 °F 92% 29.81 in 10.0 mi West 6.9 mph - N/A   Overcast